Flag for France Weather past 2 weeks in Grenoble, France

Now
66 °F

Clear.


Feels Like: 66 °F
Forecast: 60 / 83 °F
Wind: 3 mph from Northeast

Location: Grenoble / St. Geoirs

Current Time: Aug 29, 2014 at 10:18:08 PM

Latest Report: Aug 29, 2014 at 9:00 PM


Visibility: N/A

Pressure: 30.09 "Hg

Humidity: 78%

Dew point: 59 °F

Location of GrenobleLocation

Historic Weather in Grenoble — Graph

°F

Grenoble temperature yesterday

Maximum temperature yesterday: 79 °F (at 3:30 PM)
Minimum temperature yesterday: 48 °F (at 6:30 AM)
Average temperature yesterday: 64 °F

Past Weeks' High & Low Weather Summary

 TemperatureHumidityPressure
High79 °F (Aug 28, 3:30 PM)100% (Aug 27, 2:00 AM)30.21 "Hg (Aug 27, 2:00 AM)
Low45 °F (Aug 25, 4:30 AM)35% (Aug 21, 3:00 PM)29.86 "Hg (Aug 18, 8:00 PM)
Average62 °F70%30.05 "Hg
* Reported Aug 14 9:00 PM — Aug 29 9:00 PM, Grenoble, Weather by CustomWeather, © 2014

Note: Actual official high and low records may vary slightly from our data, if they occured in-between our weather recording intervals... More about our weather records

Advertising

Grenoble weather history for previous 24 hours

 ConditionsComfort  
Time TempWeatherWind HumidityBarometerVisibility
9:00 PM
Aug 29
66 °FClear.3 mph78%30.09 "HgN/A
8:30 PM68 °FClear.6 mph78%30.09 "HgN/A
8:00 PM70 °FClear.5 mph73%30.09 "HgN/A
7:30 PM72 °FOvercast.2 mph69%30.09 "HgN/A
7:00 PM72 °FPartly sunny.6 mph73%30.09 "HgN/A
6:30 PM73 °FMild.8 mph65%30.09 "HgN/A
6:00 PM73 °FMild.5 mph65%30.09 "HgN/A
5:30 PM73 °FPartly sunny.5 mph65%30.09 "HgN/A
5:00 PM72 °FPartly sunny.6 mph73%30.09 "HgN/A
4:30 PM72 °FOvercast.7 mph73%30.09 "HgN/A
4:00 PM72 °FMostly cloudy.9 mph73%30.09 "HgN/A
3:30 PM72 °FBroken clouds.8 mph69%30.09 "HgN/A
3:00 PM73 °FPartly sunny.6 mph61%30.09 "HgN/A
2:30 PM73 °FClear.5 mph61%30.09 "HgN/A
2:00 PM75 °FClear.2 mph65%30.09 "HgN/A
1:30 PM73 °FPassing clouds.5 mph65%30.09 "HgN/A
1:00 PM75 °FBroken clouds.No wind61%30.09 "HgN/A
12:30 PM75 °FPartly sunny.3 mph61%30.12 "HgN/A
12:00 PM73 °FBroken clouds.2 mph65%30.12 "HgN/A
11:30 AM72 °FClear.2 mph73%30.09 "HgN/A
11:00 AM70 °FClear.3 mph73%30.12 "HgN/A
10:30 AM70 °FClear.3 mph69%30.09 "HgN/A
10:00 AM66 °FClear.No wind78%30.09 "HgN/A
9:30 AM63 °FClear.3 mph88%30.09 "HgN/A
9:00 AM63 °FClear.3 mph88%30.09 "HgN/A
8:30 AM63 °FClear.5 mph83%30.09 "HgN/A
8:00 AM61 °FClear.2 mph88%30.07 "HgN/A
7:30 AM59 °FClear.5 mph94%30.07 "HgN/A
7:00 AM59 °FClear.6 mph94%30.07 "HgN/A
6:30 AM59 °FClear.5 mph88%30.07 "HgN/A
6:00 AM59 °FClear.7 mph88%30.04 "HgN/A
5:30 AM59 °FClear.5 mph88%30.07 "HgN/A
5:00 AM59 °FClear.6 mph94%30.07 "HgN/A
4:30 AM59 °FClear.5 mph88%30.07 "HgN/A
4:00 AM61 °FClear.2 mph88%30.07 "HgN/A
3:30 AM63 °FClear.No wind83%30.07 "HgN/A
3:00 AM64 °FClear.2 mph78%30.07 "HgN/A
2:30 AM64 °FClear.7 mph78%30.04 "HgN/A
2:00 AM64 °FClear.8 mph78%30.04 "HgN/A
1:30 AM64 °FClear.6 mph78%30.07 "HgN/A
1:00 AM64 °FClear.2 mph83%30.07 "HgN/A
12:30 AM64 °FClear.7 mph78%30.07 "HgN/A
12:00 AM63 °FClear.6 mph83%30.07 "HgN/A
11:30 PM
Aug 28
61 °FClear.6 mph88%30.07 "HgN/A
11:00 PM61 °FClear.8 mph88%30.07 "HgN/A
10:30 PM61 °FClear.7 mph88%30.07 "HgN/A
10:00 PM63 °FClear.7 mph83%30.07 "HgN/A
Weather by CustomWeather, © 2014

See weather overviewHow to use our weather pages